Location: Kaseke
(18.0171°S, 31.0526°E)
Time: 12:35:31
(UTC+00:00)

NOAA 12 - Pass Details

Date: 14 July 2020
Orbit: 795 x 815 km, 98.5° (Epoch: 07 August)

Event Time Altitude Azimuth Distance (km) Brightness Sun altitude
Rises 03:40:35 0° 17° (NNE) 3,290 7.8 -11.3°
Reaches altitude 10° 03:42:54 10° 19° (NNE) 2,364 7.1 -10.7°
Maximum altitude 03:48:06 73° 103° (ESE) 835 4.4 -9.6°
Drops below altitude 10° 03:53:21 10° 187° (S) 2,380 6.3 -8.4°
Sets 03:55:41 0° 189° (S) 3,314 7.0 -7.9°
